Location: Hurstbourne Priors
(51.2000°N, 1.3667°W)
Time: 19:48:18
(UTC+00:00)

Transit 4A - Pass Details

Date: 25 April 2021
Orbit: 870 x 974 km, 66.8° (Epoch: 09 May)

Event Time Altitude Azimuth Distance (km) Brightness Sun altitude
Rises 03:30:51 0° 308° (NW) 3,563 10.8 -11.4°
Reaches altitude 10° 03:34:14 10° 326° (NW) 2,600 10.3 -11.0°
Maximum altitude 03:38:23 19° 10° (N) 2,013 10.3 -10.5°
Drops below altitude 10° 03:42:29 10° 54° (NE) 2,554 11.9 -10.0°
Sets 03:45:46 0° 72° (ENE) 3,479 12.5 -9.6°
